Location: ???
(35.5616°N, 139.7977°E)
Time: 20:37:29
(UTC+00:00)

Cosmos 2242 Rocket - Pass Details

Date: 17 November 2025
Orbit: 614 x 644 km, 82.5° (Epoch: 08 December)

Event Time Altitude Azimuth Distance (km) Brightness Sun altitude
Rises 19:49:29 0° 206° (SSW) 2,870 6.8 -18.2°
Reaches altitude 10° 19:51:50 10° 215° (SW) 1,972 5.9 -17.8°
Maximum altitude 19:55:50 35° 281° (WNW) 1,010 4.1 -17.0°
Drops below altitude 10° 19:59:53 10° 348° (NNW) 1,998 5.9 -16.2°
Sets 20:02:18 0° 357° (N) 2,914 6.9 -15.7°
